weather.gov     
National Weather Service

Regional Weather Roundup
NWS Homepage
This page is being discontinued on March 12, 2014.
The same data is available at this site. Please update your bookmarks.
Thank you, and we apologize for the inconvenience.
Please send an email to SR-SRH.Webmaster@noaa.gov with any concerns.


Current Version
Previous Version:    01  02  03  04  05  06  07  08  09  10  11  12  13  14  15  16  17  18  19  20  21  22  23  24  25  26  27  
[Printable]
226
ASUS44 KBMX 192110
RWRAL

ALABAMA REGIONAL WEATHER ROUNDUP
NATIONAL WEATHER SERVICE BIRMINGHAM AL
400 PM CDT FRI SEP 19 2014

NOTE: "FAIR" INDICATES FEW OR NO CLOUDS BELOW 12,000 FEET
WITH NO SIGNIFICANT WEATHER AND/OR OBSTRUCTIONS TO VISIBILITY.

THE REMARK "TC" DENOTES TEMPERATURE IN DEGREES CELSIUS.

ALZ001>011-014-016>018-020-192200-
NORTH ALABAMA

CITY           SKY/WX    TMP DP  RH WIND       PRES   REMARKS
MUSCLE SHOALS  SUNNY     86  66  51 CALM      30.00F
HUNTSVILLE     MOSUNNY   89  63  41 SW6       30.00F HX  90
DECATUR        PTSUNNY   89  60  37 S8        30.00F
HALEYVILLE     FAIR      87  62  42 CALM      30.03F
GADSDEN        PTSUNNY   79  68  69 SW3       30.03F
$$

ALZ012-013-022-023-030>036-040>044-192200-
WEST CENTRAL ALABAMA

CITY           SKY/WX    TMP DP  RH WIND       PRES   REMARKS
TUSCALOOSA     MOSUNNY   89  60  37 VRB3      29.96F
$$

ALZ015-024>027-033>036-040>044-192200-
CENTRAL ALABAMA

CITY           SKY/WX    TMP DP  RH WIND       PRES   REMARKS
BIRMINGHAM     MOSUNNY   84  65  52 E7        30.02S
MONTGOMERY     MOSUNNY   92  63  38 E6        29.96S HX  93
SHELBY CO ARPT MOSUNNY   85  68  56 NE8       30.00S
MAXWELL AFB    PTSUNNY   88  63  42 E7        29.96S
GREENVILLE     FAIR      92  63  38 VRB3      29.95F HX  93
$$

ALZ019-021-028-029-037-038-045>048-192200-
EAST CENTRAL ALABAMA

CITY           SKY/WX    TMP DP  RH WIND       PRES   REMARKS
ANNISTON       CLOUDY    80  67  64 SE5       30.04S
ALEXANDER CITY MOSUNNY   86  67  53 NE5       30.01S
AUBURN         MOSUNNY   84  63  48 E8        30.04S
$$

ALZ051>064-192200-
SOUTHWEST ALABAMA

CITY           SKY/WX    TMP DP  RH WIND       PRES   REMARKS
MOBILE         MOSUNNY   86  66  51 SE7       29.95S
BROOKLEY FIELD MOSUNNY   86  68  54 VRB3      29.95F
EVERGREEN      CLOUDY    80  72  76 NW3       29.94F
$$

ALZ049-050-065>069-192200-
SOUTHEAST ALABAMA

CITY           SKY/WX    TMP DP  RH WIND       PRES   REMARKS
DOTHAN         SUNNY     88  66  48 SE8       29.99S HX  90
OZARK          MOSUNNY   89  64  42 SE8       29.95S HX  90
TROY           PTSUNNY   81  69  67 E9        29.97R
EUFAULA        PTSUNNY   75  68  78 E5        29.98F
$$




U.S. Dept. of Commerce
NOAA National Weather Service
1325 East West Highway
Silver Spring, MD 20910
E-mail: w-nws.webmaster@noaa.gov
Page last modified: May 16, 2007
NATIONAL WEATHER SERVICE: for Safety, for Work, for Fun - FOR LIFE